Regional Weather Roundup
Issued by NWS

Home | Current Version | Previous Version | Graphics & Text | Print | Product List | Glossary On
Versions: 1 2 3 4 5 6 7 8 9 10 11 12 13 14 15 16 17 18 19 20 21 22 23 24 25 26 27 28 29 30 31 32 33 34 35 36 37 38 39 40 41 42 43 44 45 46 47 48 49 50
000
ASUS43 KIND 201759
RWRIN

WEATHER ROUNDUP FOR INDIANA
NATIONAL WEATHER SERVICE INDIANAPOLIS IN
200 PM EDT MON APR 20 2015

NOTE: "FAIR" INDICATES FEW OR NO CLOUDS BELOW 12,000 FEET WITH NO
SIGNIFICANT WEATHER AND/OR OBSTRUCTIONS TO VISIBILITY.

* - STATION DOES NOT REPORT WEATHER SUCH AS PRECIPITATION OR FOG.

+ - STATION NOT QUALITY CONTROLLED BY THE NATIONAL WEATHER SERVICE.
    USE DATA WITH CAUTION...ESPECIALLY DEWPOINT AND RELATIVE
    HUMIDITY OBSERVATIONS.

INZ001>003-010>013-019-020-201900-
NORTHWEST INDIANA

CITY           SKY/WX    TMP DP  RH WIND       PRES   REMARKS
GARY /AIRPORT/ CLOUDY    50  36  57 W21G43    29.44R
RENSSELAER +   CLOUDY    46  43  87 W22G32    29.50R

$$

LMZ046-743>745-201900-
SOUTHERN LAKE MICHIGAN

STATION/POSITION TIME  TEMP    WIND        PRES    WAVE
                       AIR SEA DIR/SP/G            HT
                 (UTC) (F)     (DEG/KT/KT) (MB)    (FT)
BURNS HARBOR     1700   48     250/ 19/ 26  997.0R
MICHIGAN CITY    1700   47     220/ 26/ 29   N/A
5NW MICH CITY    1700   46 43  260/ 17/ 25   N/A     5

$$

INZ004-005-014>016-021>024-201900-
NORTH CENTRAL INDIANA

CITY           SKY/WX    TMP DP  RH WIND       PRES   REMARKS
ELKHART        CLOUDY    48  41  76 SW17G38   29.41R
GOSHEN         CLOUDY    51  44  77 W23G33    29.41R
6HR MIN TEMP:  50; 6HR MAX TEMP:  57; 6HR PCP:  0.15;

SOUTH BEND     CLOUDY    49  42  77 SW21G32   29.42R
6HR MIN TEMP:  49; 6HR MAX TEMP:  57; 6HR PCP: TRACE;


$$

INZ006>009-017-018-025>027-201900-
NORTHEAST INDIANA

CITY           SKY/WX    TMP DP  RH WIND       PRES   REMARKS
ANGOLA *+      CLOUDY    52  45  76 W17       29.39R
FORT WAYNE     CLOUDY    51  46  83 SW24G35   29.46R
6HR MIN TEMP:  51; 6HR MAX TEMP:  58; 6HR PCP: TRACE;


$$

INZ028-029-035-036-043>045-051>053-201900-
WEST CENTRAL INDIANA

CITY           SKY/WX    TMP DP  RH WIND       PRES   REMARKS
CRAWFORDSVL +  CLOUDY    47  37  69 W23G29    29.57R
6HR MIN TEMP:  45; 6HR MAX TEMP:  49; 6HR PCP:  0.01;

GREENCASTLE +  CLOUDY    50  37  62 W12G26    29.59R
LAFAYETTE      CLOUDY    48  42  80 W22G30    29.54R
6HR MIN TEMP:  48; 6HR MAX TEMP:  51; 6HR PCP: TRACE;

TERRE HAUTE    CLOUDY    54  43  66 W16G23    29.61S
6HR MIN TEMP:  50; 6HR MAX TEMP:  54; 6HR PCP: TRACE;


$$

INZ030>032-037>040-046>048-054>057-064-065-201900-
CENTRAL INDIANA

CITY           SKY/WX    TMP DP  RH WIND       PRES   REMARKS
ANDERSON       CLOUDY    50  39  66 SW17G35   29.56R
COLUMBUS       CLOUDY    52  43  71 MISG      29.61R
INDIANAPOLIS   CLOUDY    52  42  69 W17G32    29.56R
6HR MIN TEMP:  49; 6HR MAX TEMP:  57; 6HR PCP:  0.02;

-EAGLE CREEK   CLOUDY    52  42  69 W14G26    29.55S
6HR MIN TEMP:  49; 6HR MAX TEMP:  53; 6HR PCP:  0.02;

KOKOMO *+      MOSUNNY   48  43  81 W23G29    29.52R
6HR MIN TEMP:  48; 6HR MAX TEMP:  57;

MT COMFORT *+  PTSUNNY   50  39  66 W15G25    29.57R
SHELBYVILLE    CLOUDY    53  44  71 SW17G23   29.58R
6HR MIN TEMP:  53; 6HR MAX TEMP:  58; 6HR PCP:  0.08;


$$

INZ033-034-041-042-049-050-058-059-201900-
EAST CENTRAL INDIANA

CITY           SKY/WX    TMP DP  RH WIND       PRES   REMARKS
MUNCIE         CLOUDY    51  44  77 W22G31    29.52R
6HR MIN TEMP:  51; 6HR MAX TEMP:  57; 6HR PCP:  0.10;


$$

INZ060-061-067>069-081>083-085>088-201900-
SOUTHWEST INDIANA

CITY           SKY/WX    TMP DP  RH WIND       PRES   REMARKS
EVANSVILLE     PTSUNNY   58  43  57 W20G28    29.68S
6HR MIN TEMP:  52; 6HR MAX TEMP:  59; 6HR PCP: TRACE;

HUNTINGBURG *+ CLOUDY    57  43  58 W20G28    29.67S
6HR MIN TEMP:  54; 6HR MAX TEMP:  57;


$$

INZ062-063-066-070>080-084-089>092-201900-
SOUTH CENTRAL AND SOUTHEAST INDIANA

CITY           SKY/WX    TMP DP  RH WIND       PRES   REMARKS
BLOOMINGTON    CLOUDY    53  43  68 W13G22    29.61R
6HR MIN TEMP:  50; 6HR MAX TEMP:  55; 6HR PCP:  0.01;

MADISON *+     CLOUDY    55  45  67 W15G21    29.63S

$$




USA.gov is the U.S. government's official web portal to all federal, state and local government web resources and services.